TITAN 3C TRANSTAGE DEB, 1682

Orbit data source: Space-Track

TITAN 3C TRANSTAGE DEB, 1682 is space debris in LEO originally from a launch on Fri, 15 Oct 1965 UTC launched from the Air Force Eastern Test Range (AFETR). Debris objects in space refer to the collection of defunct objects orbiting the Earth. Examples of debris include non-operational satellites, rocket bodies, and fragments generated from explosions, collisions, or faulty payload assembly.

Loading next visibility...
Identifier
1682, 1965-082AV
Orbit
LEO
Country
Flag of USUS
Related business
Manufacturer
Unknown
Mission
Spacecraft
Bus & Motor
Unknown
Mass
Unknown
Launch date (UTC)
1965-10-15 (60 years ago)
Launch vehicle
Unknown
Launch site
Air Force Eastern Test Range (AFETR)
Object type
Payload
Rocket body
Debris
Shape & HBR
Unknown shape, 0.3 m
Radar Cross Section
Medium (>0.1 m² and <1 m²)

Expand to show TLE details & history
Last TLE update: 1 day ago

TLE from 1 day ago
0 TITAN 3C TRANSTAGE DEB
1 01682U 65082AV  25306.18068278  .00002532  00000-0  37120-3 0  9992
2 01682  32.4121 281.6556 0048930 233.2776 126.3377 14.73358761156960
Epoch: 2025-11-02T04:20Z
TLE epoch observation values (Epoch: 2025-11-02T04:20:10.992Z)
Latitude
0.00002°
Longitude
174.90973°
Altitude
669.518 km
Speed
7.514 km/s
True Right ascension
18h 46m 37s
True Declination
0° 00' 00"
Sunlit
Object was in daylight at epoch
Visualization orbit readout
Latitude
Unknown
Longitude
Unknown
Altitude
Unknown
Speed
Unknown
Apparent Right ascension
Unknown
Apparent Declination
Unknown
Sunlit
N/A
Visualization observer readout
Local Sidereal Time
03:34:50
Azimuth
Unknown
Elevation
Unknown
Doppler factor
Unknown
Orbital elements
Apogee altitude
688.345 km
Perigee altitude
619.53 km
Semi-major axis
7,032.075 km
Eccentricity
0.00489
Inclination
32.4121°
RAAN
281.6556°
Arg. of periapsis
233.2776°
True anomaly
126.78773°
Mean anomaly
126.3377°
Eccentric anomaly
126.56288°
Mean motion
3.68059 °/min
Orbital period
97.81 mins
BSTAR
0.0003712

Documentation

Showing up to 5 results
|